Location: *
(57.8420°S, 159.8600°W)
Time: 04:14:24
(UTC+00:00)

COSMOS 2428 - Pass Details

Date: 18 May 2021
Orbit: 844 x 859 km, 70.9° (Epoch: 23 June)

Event Time Altitude Azimuth Distance (km) Brightness Sun altitude
Rises 06:41:18 0° 271° (W) 3,437 6.9 -33.0°
Reaches altitude 10° 06:44:08 10° 259° (WSW) 2,502 6.0 -33.4°
Maximum altitude 06:49:00 27° 201° (SSW) 1,592 4.4 -34.0°
Enters shadow 06:49:35 27° 191° (S) 1,609 4.3 -34.1°
